Time,TemperatureF,DewpointF,PressureIn,WindDirection,WindDirectionDegrees,WindSpeedMPH,WindSpeedGustMPH,Humidity,HourlyPrecipIn,Conditions,Clouds,dailyrainin,SoftwareType,DateUTC
2013-02-28 00:13:00,41.2,41.0,29.57,East,79,10.0,14.0,98,0.00,,,0.00,weatherlink.com 1.10,2013-02-28 05:13:00,
2013-02-28 00:28:00,40.8,40.0,29.57,NE,48,11.0,15.0,98,0.00,,,0.00,weatherlink.com 1.10,2013-02-28 05:28:00,
2013-02-28 00:43:00,40.5,40.0,29.58,ESE,113,9.0,14.0,98,0.00,,,0.00,weatherlink.com 1.10,2013-02-28 05:43:00,
2013-02-28 00:58:00,40.2,40.0,29.58,ENE,63,7.0,14.0,98,0.00,,,0.00,weatherlink.com 1.10,2013-02-28 05:58:00,
2013-02-28 01:13:00,40.0,40.0,29.58,NNE,25,7.0,11.0,98,0.00,,,0.00,weatherlink.com 1.10,2013-02-28 06:13:00,
2013-02-28 01:28:00,40.1,40.0,29.58,NNE,23,5.0,9.0,98,0.00,,,0.00,weatherlink.com 1.10,2013-02-28 06:28:00,
2013-02-28 01:43:00,39.8,39.0,29.59,NE,37,6.0,11.0,98,0.00,,,0.00,weatherlink.com 1.10,2013-02-28 06:43:00,
2013-02-28 01:58:00,39.9,39.0,29.59,ENE,59,9.0,12.0,98,0.00,,,0.00,weatherlink.com 1.10,2013-02-28 06:58:00,
2013-02-28 02:13:00,39.2,39.0,29.59,ENE,65,7.0,8.0,98,0.00,,,0.00,weatherlink.com 1.10,2013-02-28 07:13:00,
2013-02-28 02:28:00,39.9,39.0,29.58,ENE,75,6.0,11.0,98,0.00,,,0.00,weatherlink.com 1.10,2013-02-28 07:28:00,
2013-02-28 02:58:00,40.2,40.0,29.58,NE,56,5.0,10.0,98,0.00,,,0.00,weatherlink.com 1.10,2013-02-28 07:58:00,
2013-02-28 03:13:00,40.4,40.0,29.58,NE,34,3.0,10.0,98,0.00,,,0.00,weatherlink.com 1.10,2013-02-28 08:13:00,
2013-02-28 03:28:00,40.7,40.0,29.58,NE,43,7.0,7.0,98,0.00,,,0.00,weatherlink.com 1.10,2013-02-28 08:28:00,
2013-02-28 03:43:00,40.6,40.0,29.59,ENE,58,3.0,8.0,98,0.00,,,0.00,weatherlink.com 1.10,2013-02-28 08:43:00,
2013-02-28 03:58:00,40.3,40.0,29.59,NE,34,8.0,11.0,98,0.00,,,0.00,weatherlink.com 1.10,2013-02-28 08:58:00,
2013-02-28 04:13:00,40.1,40.0,29.59,NE,55,7.0,10.0,98,0.00,,,0.00,weatherlink.com 1.10,2013-02-28 09:13:00,
2013-02-28 04:28:00,39.8,39.0,29.59,NE,56,9.0,10.0,98,0.00,,,0.00,weatherlink.com 1.10,2013-02-28 09:28:00,
2013-02-28 04:43:00,39.8,39.0,29.60,NE,44,5.0,9.0,98,0.00,,,0.00,weatherlink.com 1.10,2013-02-28 09:43:00,
2013-02-28 04:58:00,39.6,39.0,29.61,East,91,5.0,7.0,98,0.00,,,0.00,weatherlink.com 1.10,2013-02-28 09:58:00,
2013-02-28 05:13:00,39.3,39.0,29.61,ENE,77,3.0,8.0,98,0.00,,,0.00,weatherlink.com 1.10,2013-02-28 10:13:00,
2013-02-28 05:28:00,39.2,39.0,29.61,ENE,63,7.0,9.0,98,0.00,,,0.00,weatherlink.com 1.10,2013-02-28 10:28:00,
2013-02-28 05:43:00,38.7,38.0,29.61,NNE,19,7.0,9.0,98,0.00,,,0.00,weatherlink.com 1.10,2013-02-28 10:43:00,
2013-02-28 05:58:00,38.8,38.0,29.62,ENE,70,6.0,8.0,98,0.00,,,0.00,weatherlink.com 1.10,2013-02-28 10:58:00,
2013-02-28 06:13:00,38.6,38.0,29.61,ENE,58,3.0,9.0,98,0.00,,,0.00,weatherlink.com 1.10,2013-02-28 11:13:00,
2013-02-28 06:28:00,38.7,38.0,29.62,ENE,64,3.0,10.0,98,0.00,,,0.00,weatherlink.com 1.10,2013-02-28 11:28:00,
2013-02-28 06:43:00,38.8,38.0,29.62,NE,39,2.0,7.0,98,0.00,,,0.00,weatherlink.com 1.10,2013-02-28 11:43:00,
2013-02-28 06:58:00,38.7,38.0,29.63,East,82,7.0,7.0,98,0.00,,,0.00,weatherlink.com 1.10,2013-02-28 11:58:00,
2013-02-28 07:13:00,38.6,38.0,29.62,NE,43,3.0,6.0,98,0.00,,,0.00,weatherlink.com 1.10,2013-02-28 12:13:00,
2013-02-28 07:28:00,39.7,39.0,29.62,North,4,3.0,5.0,98,0.00,,,0.00,weatherlink.com 1.10,2013-02-28 12:28:00,
2013-02-28 07:44:00,39.7,39.0,29.62,ENE,74,6.0,6.0,98,0.00,,,0.00,weatherlink.com 1.10,2013-02-28 12:44:00,
2013-02-28 07:59:00,38.5,38.0,29.64,ESE,110,4.0,9.0,98,0.00,,,0.00,weatherlink.com 1.10,2013-02-28 12:59:00,
2013-02-28 08:14:00,37.9,37.0,29.64,ESE,105,5.0,9.0,98,0.00,,,0.00,weatherlink.com 1.10,2013-02-28 13:14:00,
2013-02-28 08:29:00,38.0,38.0,29.64,ENE,61,7.0,8.0,98,0.00,,,0.00,weatherlink.com 1.10,2013-02-28 13:29:00,
2013-02-28 08:44:00,38.1,38.0,29.64,ENE,72,4.0,10.0,98,0.00,,,0.00,weatherlink.com 1.10,2013-02-28 13:44:00,
2013-02-28 08:59:00,37.9,37.0,29.64,SE,141,2.0,10.0,98,0.00,,,0.00,weatherlink.com 1.10,2013-02-28 13:59:00,
2013-02-28 09:14:00,37.6,37.0,29.64,ESE,121,6.0,8.0,98,0.00,,,0.00,weatherlink.com 1.10,2013-02-28 14:14:00,
2013-02-28 09:29:00,37.5,37.0,29.64,SSE,147,4.0,7.0,98,0.00,,,0.00,weatherlink.com 1.10,2013-02-28 14:29:00,
2013-02-28 09:44:00,37.6,37.0,29.64,ESE,110,6.0,8.0,98,0.00,,,0.00,weatherlink.com 1.10,2013-02-28 14:44:00,
2013-02-28 09:59:00,37.7,37.0,29.63,East,101,5.0,8.0,98,0.00,,,0.00,weatherlink.com 1.10,2013-02-28 14:59:00,
2013-02-28 10:14:00,38.3,38.0,29.61,ESE,109,2.0,8.0,98,0.00,,,0.00,weatherlink.com 1.10,2013-02-28 15:14:00,
2013-02-28 10:29:00,38.0,38.0,29.62,East,95,3.0,9.0,98,0.00,,,0.00,weatherlink.com 1.10,2013-02-28 15:29:00,
2013-02-28 10:44:00,38.0,38.0,29.62,ESE,110,4.0,9.0,98,0.00,,,0.00,weatherlink.com 1.10,2013-02-28 15:44:00,
2013-02-28 10:59:00,37.9,37.0,29.62,ESE,105,7.0,8.0,98,0.00,,,0.00,weatherlink.com 1.10,2013-02-28 15:59:00,
2013-02-28 11:14:00,37.6,37.0,29.62,East,94,6.0,7.0,98,0.00,,,0.00,weatherlink.com 1.10,2013-02-28 16:14:00,
2013-02-28 11:29:00,37.7,37.0,29.61,ESE,112,2.0,8.0,98,0.00,,,0.00,weatherlink.com 1.10,2013-02-28 16:29:00,
2013-02-28 11:44:00,37.4,37.0,29.61,ESE,120,4.0,7.0,97,0.00,,,0.00,weatherlink.com 1.10,2013-02-28 16:44:00,
2013-02-28 11:59:00,37.7,37.0,29.60,ESE,105,4.0,7.0,98,0.00,,,0.00,weatherlink.com 1.10,2013-02-28 16:59:00,
2013-02-28 12:29:00,38.3,38.0,29.59,ESE,122,5.0,8.0,97,0.00,,,0.00,weatherlink.com 1.10,2013-02-28 17:29:00,
2013-02-28 12:44:00,38.3,37.0,29.58,ESE,120,6.0,7.0,96,0.00,,,0.00,weatherlink.com 1.10,2013-02-28 17:44:00,
2013-02-28 12:59:00,39.1,38.0,29.58,SSE,155,1.0,6.0,97,0.00,,,0.00,weatherlink.com 1.10,2013-02-28 17:59:00,
2013-02-28 13:14:00,39.1,38.0,29.57,ESE,122,5.0,7.0,96,0.00,,,0.00,weatherlink.com 1.10,2013-02-28 18:14:00,
2013-02-28 13:29:00,40.0,39.0,29.56,East,80,2.0,6.0,96,0.00,,,0.00,weatherlink.com 1.10,2013-02-28 18:29:00,
2013-02-28 13:44:00,39.5,39.0,29.57,West,278,1.0,6.0,96,0.00,,,0.00,weatherlink.com 1.10,2013-02-28 18:44:00,
2013-02-28 13:59:00,39.3,38.0,29.56,SE,128,4.0,6.0,96,0.00,,,0.00,weatherlink.com 1.10,2013-02-28 18:59:00,
2013-02-28 14:14:00,39.3,38.0,29.55,SSW,194,6.0,8.0,95,0.00,,,0.00,weatherlink.com 1.10,2013-02-28 19:14:00,
2013-02-28 14:29:00,39.8,38.0,29.55,South,187,6.0,7.0,94,0.00,,,0.00,weatherlink.com 1.10,2013-02-28 19:29:00,
2013-02-28 14:44:00,40.3,39.0,29.54,SSW,194,1.0,6.0,93,0.00,,,0.00,weatherlink.com 1.10,2013-02-28 19:44:00,
2013-02-28 14:59:00,40.5,38.0,29.54,SE,124,4.0,5.0,92,0.00,,,0.00,weatherlink.com 1.10,2013-02-28 19:59:00,
2013-02-28 15:14:00,40.3,38.0,29.54,East,96,1.0,4.0,92,0.00,,,0.00,weatherlink.com 1.10,2013-02-28 20:14:00,
2013-02-28 15:29:00,40.4,38.0,29.53,SE,146,4.0,5.0,92,0.00,,,0.00,weatherlink.com 1.10,2013-02-28 20:29:00,
2013-02-28 15:44:00,40.6,39.0,29.53,SE,136,4.0,6.0,93,0.00,,,0.00,weatherlink.com 1.10,2013-02-28 20:44:00,
2013-02-28 15:59:00,40.3,39.0,29.53,ESE,103,3.0,7.0,93,0.00,,,0.00,weatherlink.com 1.10,2013-02-28 20:59:00,
2013-02-28 16:14:00,40.1,38.0,29.53,SE,139,2.0,5.0,93,0.00,,,0.00,weatherlink.com 1.10,2013-02-28 21:14:00,
2013-02-28 16:29:00,40.4,39.0,29.53,NE,41,3.0,6.0,93,0.00,,,0.00,weatherlink.com 1.10,2013-02-28 21:29:00,
2013-02-28 16:44:00,40.0,38.0,29.53,ESE,114,6.0,7.0,92,0.00,,,0.00,weatherlink.com 1.10,2013-02-28 21:44:00,
2013-02-28 16:59:00,39.7,38.0,29.53,SSW,204,1.0,6.0,92,0.00,,,0.00,weatherlink.com 1.10,2013-02-28 21:59:00,
2013-02-28 17:14:00,39.5,37.0,29.53,SE,146,2.0,5.0,92,0.00,,,0.00,weatherlink.com 1.10,2013-02-28 22:14:00,
2013-02-28 17:29:00,39.1,37.0,29.53,South,172,0.0,4.0,92,0.00,,,0.00,weatherlink.com 1.10,2013-02-28 22:29:00,
2013-02-28 17:44:00,38.8,37.0,29.54,West,262,2.0,4.0,93,0.00,,,0.00,weatherlink.com 1.10,2013-02-28 22:44:00,
2013-02-28 17:59:00,38.3,37.0,29.54,South,191,2.0,4.0,93,0.00,,,0.00,weatherlink.com 1.10,2013-02-28 22:59:00,
2013-02-28 18:14:00,38.2,36.0,29.54,SSW,195,3.0,4.0,92,0.00,,,0.00,weatherlink.com 1.10,2013-02-28 23:14:00,
2013-02-28 18:29:00,38.0,36.0,29.54,SSE,159,1.0,3.0,93,0.00,,,0.00,weatherlink.com 1.10,2013-02-28 23:29:00,
2013-02-28 18:44:00,37.9,36.0,29.54,WSW,243,1.0,2.0,93,0.00,,,0.00,weatherlink.com 1.10,2013-02-28 23:44:00,
2013-02-28 18:59:00,37.7,36.0,29.54,WSW,250,2.0,2.0,93,0.00,,,0.00,weatherlink.com 1.10,2013-02-28 23:59:00,
2013-02-28 19:14:00,37.8,36.0,29.54,West,274,3.0,4.0,94,0.00,,,0.00,weatherlink.com 1.10,2013-03-01 00:14:00,
2013-02-28 19:29:00,37.8,36.0,29.54,SW,233,1.0,3.0,94,0.00,,,0.00,weatherlink.com 1.10,2013-03-01 00:29:00,
2013-02-28 19:44:00,37.8,36.0,29.53,WSW,239,2.0,2.0,94,0.00,,,0.00,weatherlink.com 1.10,2013-03-01 00:44:00,
2013-02-28 19:59:00,37.9,36.0,29.53,West,259,1.0,3.0,94,0.00,,,0.00,weatherlink.com 1.10,2013-03-01 00:59:00,
2013-02-28 20:14:00,37.9,36.0,29.53,WSW,256,0.0,0.0,94,0.00,,,0.00,weatherlink.com 1.10,2013-03-01 01:14:00,
2013-02-28 20:29:00,37.7,36.0,29.53,WSW,256,0.0,0.0,94,0.00,,,0.00,weatherlink.com 1.10,2013-03-01 01:29:00,
2013-02-28 20:44:00,37.9,36.0,29.53,SE,145,0.0,1.0,94,0.00,,,0.00,weatherlink.com 1.10,2013-03-01 01:44:00,
2013-02-28 20:59:00,38.1,37.0,29.53,SE,129,0.0,1.0,94,0.00,,,0.00,weatherlink.com 1.10,2013-03-01 01:59:00,
2013-02-28 21:14:00,38.1,37.0,29.53,West,269,1.0,2.0,94,0.00,,,0.00,weatherlink.com 1.10,2013-03-01 02:14:00,
2013-02-28 21:29:00,37.9,37.0,29.52,SSW,208,0.0,1.0,95,0.00,,,0.00,weatherlink.com 1.10,2013-03-01 02:29:00,
2013-02-28 21:44:00,37.9,36.0,29.52,SSW,208,0.0,0.0,94,0.00,,,0.00,weatherlink.com 1.10,2013-03-01 02:44:00,
2013-02-28 21:59:00,37.9,36.0,29.52,SSE,163,1.0,2.0,94,0.00,,,0.00,weatherlink.com 1.10,2013-03-01 02:59:00,
2013-02-28 22:15:00,38.0,37.0,29.51,SSW,204,0.0,1.0,94,0.00,,,0.00,weatherlink.com 1.10,2013-03-01 03:15:00,
2013-02-28 22:30:00,38.0,37.0,29.50,South,180,0.0,3.0,94,0.00,,,0.00,weatherlink.com 1.10,2013-03-01 03:30:00,
2013-02-28 22:45:00,38.1,37.0,29.50,SSE,165,1.0,2.0,94,0.00,,,0.00,weatherlink.com 1.10,2013-03-01 03:45:00,
2013-02-28 23:00:00,38.1,37.0,29.50,ESE,121,4.0,5.0,95,0.00,,,0.00,weatherlink.com 1.10,2013-03-01 04:00:00,
2013-02-28 23:15:00,38.1,37.0,29.50,SE,146,3.0,5.0,95,0.00,,,0.00,weatherlink.com 1.10,2013-03-01 04:15:00,
2013-02-28 23:30:00,38.1,37.0,29.50,ESE,105,2.0,7.0,96,0.00,,,0.00,weatherlink.com 1.10,2013-03-01 04:30:00,
2013-02-28 23:45:00,38.1,37.0,29.50,SE,129,4.0,7.0,96,0.00,,,0.00,weatherlink.com 1.10,2013-03-01 04:45:00,